This is the latest recevied weather packets stored in our database for station/object W2JBO-5. If no packets are shown the sender has not sent any weather packets the latest 10 day(s).
| Time | Temp. | Humidity | Pressure | Rain* | Wind** | Luminosity | Snow |
|---|---|---|---|---|---|---|---|
| 1777898077 | 15° C | 99% | 1018.1 hPa | 0 mm | - | 73 W/m² | - |
| 1777897773 | 13.89° C | 99% | 1018 hPa | 0 mm | - | 58 W/m² | - |
| 1777897469 | 12.78° C | 99% | 1017.8 hPa | 0 mm | - | 51 W/m² | - |
| 1777897165 | 13.33° C | 99% | 1018 hPa | 0 mm | - | 45 W/m² | - |
| 1777896861 | 12.22° C | 99% | 1017.8 hPa | 0 mm | - | 41 W/m² | - |
| 1777896559 | 12.78° C | 99% | 1017.8 hPa | 0 mm | - | 35 W/m² | - |
| 1777896256 | 11.67° C | 99% | 1017.9 hPa | 0 mm | - | 29 W/m² | - |
| 1777895954 | 11.11° C | 99% | 1017.9 hPa | 0 mm | - | 26 W/m² | - |
| 1777895651 | 10.56° C | 99% | 1018 hPa | 0 mm | - | 19 W/m² | - |
| 1777895348 | 10.56° C | 99% | 1017.7 hPa | 0 mm | - | 16 W/m² | - |
| 1777895047 | 10.56° C | 99% | 1017.6 hPa | 0 mm | - | 12 W/m² | - |
| 1777894743 | 10.56° C | 99% | 1017.8 hPa | 0 mm | - | 9 W/m² | - |
| 1777894440 | 10.56° C | 99% | 1017.6 hPa | 0 mm | - | 7 W/m² | - |
| 1777894137 | 10° C | 99% | 1017.3 hPa | 0 mm | - | 5 W/m² | - |
| 1777893834 | 10.56° C | 99% | 1017.6 hPa | 0 mm | - | 1 W/m² | - |
| 1777893530 | 10° C | 99% | 1017.6 hPa | 0 mm | - | 0 W/m² | - |
| 1777893227 | 10.56° C | 99% | 1017.6 hPa | 0 mm | - | 0 W/m² | - |
| 1777892923 | 10.56° C | 99% | 1017.5 hPa | 0 mm | - | 0 W/m² | - |
| 1777892620 | 10.56° C | 99% | 1017.2 hPa | 0 mm | - | 0 W/m² | - |
| 1777892316 | 10.56° C | 99% | 1017.4 hPa | 0 mm | - | 0 W/m² | - |
| 1777892012 | 10.56° C | 99% | 1017.5 hPa | 0 mm | - | 0 W/m² | - |
| 1777891710 | 10.56° C | 99% | 1017.4 hPa | 0 mm | - | 0 W/m² | - |
| 1777891406 | 10.56° C | 99% | 1017.3 hPa | 0 mm | - | 0 W/m² | - |
| 1777891101 | 10.56° C | 99% | 1017.4 hPa | 0 mm | - | 0 W/m² | - |
| 1777890796 | 10.56° C | 99% | 1017.2 hPa | 0 mm | - | 0 W/m² | - |
* Rain latest hour (hover to see other rain measurements)
** Current wind speed in m/s (hover to see current wind gust speed)